GLOBALSTAR M028 [-]

Last updated on Fri Dec 29 2023 00:02:56 GMT+0000 (Coordinated Universal Time)

1 25875U 99041D 23362.13490023 -.00000100 00000+0 33037-5 0 9990 2 25875 51.9649 354.4110 0063530 345.3966 14.5059 12.50546870123013

Satellite not in orbit

GLOBALSTAR M028 [-]